Regional Weather Roundup
Issued by NWS

Home | Current Version | Previous Version | Graphics & Text | Print | Product List | Glossary On
Versions: 1 2 3 4 5 6 7 8 9 10 11 12 13 14 15 16 17 18 19 20 21 22 23 24 25 26 27 28 29 30 31 32 33 34 35 36 37 38 39 40 41 42 43 44 45 46 47 48 49 50
984
ASUS44 KMEG 250310
RWRTN
TENNESSEE HOURLY STATE WEATHER ROUNDUP
NATIONAL WEATHER SERVICE MEMPHIS TN
1000 PM CDT TUE MAY 24 2016

TNZ002-004-019-021-049-052-054-088>092-250400-
WEST TENNESSEE

CITY           SKY/WX    TMP DP  RH WIND       PRES   REMARKS
MEMPHIS INTL   LGT RAIN  68  65  90 CALM      30.17R
NWS MEMPHIS      N/A     68 N/A N/A MISG        N/A
JACKSON        LGT RAIN  70  66  87 NW10      30.10R
DYERSBURG      CLOUDY    66  64  94 CALM      30.10S
UNION CITY     CLOUDY    66  66 100 SW13      30.07S
PARIS          MOCLDY    70  63  78 SW3       30.08S
LEXINGTON      CLEAR     70  66  88 CALM      30.08R
$$

TNZ008-025-027-028-033-062-065-066-250400-
NORTH MIDDLE TENNESSEE

CITY           SKY/WX    TMP DP  RH WIND       PRES   REMARKS
NASHVILLE      PTCLDY    72  57  59 S5        30.10R
CLARKSVILLE    CLOUDY    72  59  63 S3        30.07R
SMYRNA         CLEAR     69  57  65 CALM      30.11R
COOKEVILLE     CLEAR     63  59  88 CALM      30.13R
CROSSVILLE     CLEAR     66  53  63 CALM      30.19R
$$

TNZ061-075-076-078-094-096-097-250400-
SOUTH MIDDLE TENNESSEE

CITY           SKY/WX    TMP DP  RH WIND       PRES   REMARKS
FAYETTEVILLE   MOCLDY    72  55  56 CALM      30.13S
TULLAHOMA      CLEAR     64  61  88 CALM      30.15R
WINCHESTER     CLEAR     66  55  68 CALM      30.15R
MCMINNVILLE    CLEAR     64  57  77 CALM      30.14R
COLUMBIA       CLEAR    N/A N/A N/A CALM      30.10R
SHELBYVILLE    CLEAR     66  57  72 E6        30.13R
$$

TNZ017-018-042-046-047-250400-
NORTHEAST TENNESSEE

CITY           SKY/WX    TMP DP  RH WIND       PRES   REMARKS
TRI CITIES     CLEAR     57  52  83 CALM      30.18R
$$

TNZ012-013-036-069-073-074-250400-
CENTRAL EAST TENNESSEE

CITY           SKY/WX    TMP DP  RH WIND       PRES   REMARKS
KNOXVILLE      PTCLDY    71  51  49 CALM      30.15R
OAK RIDGE      CLEAR     67  57  70 CALM      30.16R
GATLINBURG     CLEAR     61  52  72 CALM      30.16R
$$

TNZ083-085-099-250400-
SOUTHEAST TENNESSEE

CITY           SKY/WX    TMP DP  RH WIND       PRES   REMARKS
CHATTANOOGA    PTCLDY    74  55  51 S3        30.14R
$$

SKY/WX REPORTED AS FAIR MEANS FEW OR NO CLOUDS BELOW
12 THOUSAND FEET.





USA.gov is the U.S. government's official web portal to all federal, state and local government web resources and services.